Location: Apeadero de Los Molinos-Guadarrama
(40.7091°N, 4.0689°W)
Time: 20:51:07
(UTC+00:00)

Tiangong - Pass Details

Date: 02 October 2021
Orbit: 382 x 385 km, 41.5° (Epoch: 19 October)

Event Time Altitude Azimuth Distance (km) Brightness Sun altitude
Exits shadow 04:26:59 60° 62° (ENE) 438 1.5 -20.9°
Drops below altitude 10° 04:29:41 10° 82° (E) 1,395 5.1 -20.4°
Sets 04:31:45 0° 84° (E) 2,248 6.5 -20.1°
